Regional Weather Roundup
Issued by NWS

Home | Current Version | Previous Version | Graphics & Text | Print | Product List | Glossary On
Versions: 1 2 3 4 5 6 7 8 9 10 11 12 13 14 15 16 17 18 19 20 21 22 23 24 25 26 27 28 29 30 31 32 33 34 35 36 37 38 39 40 41 42 43 44 45 46 47 48 49 50
075
ASUS43 KIND 132209
RWRIN

WEATHER ROUNDUP FOR INDIANA
NATIONAL WEATHER SERVICE INDIANAPOLIS IN
500 PM EST SAT FEB 13 2016

NOTE: "FAIR" INDICATES FEW OR NO CLOUDS BELOW 12,000 FEET WITH NO
SIGNIFICANT WEATHER AND/OR OBSTRUCTIONS TO VISIBILITY.

* - STATION DOES NOT REPORT WEATHER SUCH AS PRECIPITATION OR FOG.

+ - STATION NOT QUALITY CONTROLLED BY THE NATIONAL WEATHER SERVICE.
    USE DATA WITH CAUTION...ESPECIALLY DEWPOINT AND RELATIVE
    HUMIDITY OBSERVATIONS.

INZ001>003-010>013-019-020-132300-
NORTHWEST INDIANA

CITY           SKY/WX    TMP DP  RH WIND       PRES   REMARKS
GARY /AIRPORT/ MOSUNNY   19 -13  23 CALM      30.54F
KNOX *+        SUNNY     14   0  52 N8        30.53F WCI   3
LA PORTE +     MOSUNNY   15   3  59 NW9       30.52F WCI   3
MICHIGAN CITY+ CLOUDY    14   3  62 NW6       30.54S WCI   5
MONTICELLO +   SUNNY     17 -10  29 W5        30.52S WCI  10
RENSSELAER +   SUNNY     19 -11  25 NW7       30.52F WCI  10
VALPARAISO     SUNNY     16  -3  43 N6        30.52S WCI   7

$$

LMZ046-743>745-132300-
SOUTHERN LAKE MICHIGAN

STATION/POSITION TIME  TEMP    WIND        PRES    WAVE
                       AIR SEA DIR/SP/G            HT
                 (UTC) (F)     (DEG/KT/KT) (MB)    (FT)
BURNS HARBOR     2100   14     330/  6/  9 1034.5F
MICHIGAN CITY    2100   14     300/  8/ 14   N/A

$$

INZ004-005-014>016-021>024-132300-
NORTH CENTRAL INDIANA

CITY           SKY/WX    TMP DP  RH WIND       PRES   REMARKS
ELKHART        CLOUDY    14   3  62 MISG      30.50R
GOSHEN         CLOUDY    13   5  70 W16       30.49S WCI  -3
LOGANSPORT +   SUNNY     18  -8  32 NW8       30.53S WCI   7
PERU/GRISSOM   SUNNY     16  -2  44 NW9       30.49S WCI   4
ROCHESTER +    SUNNY     18  -4  38 NW10      30.52S WCI   6
SOUTH BEND     LGT SNOW  12   7  80 W10       30.51S WCI  -1
WARSAW +       MOSUNNY   14   5  67 W15       30.50R WCI  -1

$$

INZ006>009-017-018-025>027-132300-
NORTHEAST INDIANA

CITY           SKY/WX    TMP DP  RH WIND       PRES   REMARKS
ANGOLA *+      CLOUDY    16   3  57 W13       30.44R WCI   2
AUBURN +       PTSUNNY   18   9  68 W14       30.48R HAZE    WCI   4
FORT WAYNE     PTSUNNY   15   3  59 W13       30.50R WCI   1
HUNTINGTON +   SUNNY     14  -3  45 NW12      30.51R WCI   0

$$

INZ028-029-035-036-043>045-051>053-132300-
WEST CENTRAL INDIANA

CITY           SKY/WX    TMP DP  RH WIND       PRES   REMARKS
CRAWFORDSVL +  SUNNY     16  -5  39 W5        30.53R WCI   8
GREENCASTLE +  SUNNY     19 -11  25 NW5       30.52S WCI  13
LAFAYETTE      SUNNY     18  -5  36 W12       30.53S WCI   5
TERRE HAUTE    MOSUNNY   19  -1  41 NW6       30.55S WCI  11

$$

INZ030>032-037>040-046>048-054>057-064-065-132300-
CENTRAL INDIANA

CITY           SKY/WX    TMP DP  RH WIND       PRES   REMARKS
FRANKFORT +    SUNNY     20 -18  18 W10       30.52S WCI   8
GREENWOOD *+   SUNNY     19   1  45 NW8       30.51R WCI   9
INDIANAPOLIS   MOSUNNY   19  -5  34 NW7       30.50S WCI  10
-EAGLE CREEK   SUNNY     18  -3  39 N6G16     30.51R WCI  10
KOKOMO *+      SUNNY     18   0  45 NW13      30.51S WCI   4
MARION +       MOSUNNY   15  -7  38 NW12      30.51S WCI   2
MT COMFORT *+  SUNNY     18  -6  35 NW8       30.51R WCI   7
SHELBYVILLE    SUNNY     20  -2  38 NW10      30.50S WCI   9
ZIONSVILLE +   SUNNY     18  -1  43 N9        30.50S WCI   6

$$

INZ033-034-041-042-049-050-058-059-132300-
EAST CENTRAL INDIANA

CITY           SKY/WX    TMP DP  RH WIND       PRES   REMARKS
MUNCIE         MOSUNNY   17   2  51 NW9       30.49R WCI   6

$$

INZ060-061-067>069-081>083-085>088-132300-
SOUTHWEST INDIANA

CITY           SKY/WX    TMP DP  RH WIND       PRES   REMARKS
EVANSVILLE     SUNNY     26   0  32 N9        30.56S WCI  17
HUNTINGBURG *+ SUNNY     25   1  36 N7        30.55R WCI  17
WASHINGTON +   SUNNY     21  -3  33 NW5       30.55S WCI  15

$$

INZ062-063-066-070>080-084-089>092-132300-
SOUTH CENTRAL AND SOUTHEAST INDIANA

CITY           SKY/WX    TMP DP  RH WIND       PRES   REMARKS
BEDFORD +      SUNNY     23   0  36 NW6       30.52R WCI  16
BLOOMINGTON    SUNNY     20  -4  34 CALM      30.51R
MADISON *+     SUNNY     23   0  36 N5        30.52S WCI  17
NORTH VERNON + SUNNY     21   0  39 CALM      30.52R
SEYMOUR +      SUNNY     27   0  31 CALM      30.52S

$$





USA.gov is the U.S. government's official web portal to all federal, state and local government web resources and services.